Location: Newark
(45.5000°N, 11.4167°E)
Time: 15:44:44
(UTC+00:00)

SR - All Passes

Search period start: 21 August 2019 00:00
Search period end: 31 August 2019 00:00
Orbit: 578 x 878 km, 66.7° (Epoch: 20 August)

Date Brightness Start Highest point End Pass type
(mag) Time Alt. Az. Time Alt. Az. Time Alt. Az.
21 Aug - 10:45:54 10° SE 10:48:07 14° ESE 10:50:24 10° ENE daylight
21 Aug - 12:24:58 10° SW 12:29:23 73° NW 12:34:15 10° NNE daylight
21 Aug - 14:09:40 10° WNW 14:12:26 15° NNW 14:15:20 10° N daylight
21 Aug - 19:21:09 10° NNW 19:25:48 28° NE 19:30:39 10° ESE visible
21 Aug - 21:02:48 10° NW 21:08:15 63° WSW 21:14:01 10° SSE visible
22 Aug - 11:35:30 10° SSW 11:39:49 55° ESE 11:44:30 10° NE daylight
22 Aug - 13:18:32 10° W 13:22:15 24° NW 13:26:14 10° NNE daylight
22 Aug - 18:31:58 10° N 18:35:40 18° NE 18:39:31 10° E visible
22 Aug - 20:13:07 10° NNW 20:18:38 74° ENE 20:24:27 10° SE visible
22 Aug - 21:56:16 10° WNW 22:00:15 20° WSW 22:04:20 10° SSW visible
23 Aug - 10:46:44 10° SSE 10:50:27 27° ESE 10:54:24 10° NE daylight
23 Aug - 12:28:00 10° WSW 12:32:16 40° NW 12:36:54 10° NNE daylight
23 Aug - 14:14:37 10° NW 14:15:50 11° NNW 14:17:04 10° N daylight
23 Aug - 17:43:06 10° N 17:45:22 12° NNE 17:47:41 10° NE daylight
23 Aug - 19:23:38 10° NNW 19:28:50 43° NE 19:34:20 10° ESE visible
23 Aug - 21:05:50 10° NW 21:10:54 37° WSW 21:16:11 10° S visible
24 Aug - 09:59:16 10° SE 10:01:16 13° ESE 10:03:18 10° ENE daylight
24 Aug - 11:38:02 10° SW 11:42:29 78° WNW 11:47:23 10° NNE daylight
24 Aug - 13:22:34 10° WNW 13:25:30 16° NNW 13:28:33 10° N daylight
24 Aug - 18:34:17 10° NNW 18:38:53 27° NE 18:43:42 10° E visible
24 Aug - 20:15:54 10° NW 20:21:24 67° WSW 20:27:12 10° SSE visible
24 Aug - 22:01:29 10° W 22:02:36 11° WSW 22:03:44 10° WSW visible
25 Aug - 10:48:38 10° SSW 10:52:56 52° ESE 10:57:37 10° NE daylight
25 Aug - 12:31:31 10° W 12:35:19 25° NW 12:39:25 10° NNE daylight
25 Aug - 17:45:07 10° N 17:48:44 18° NE 17:52:31 10° ENE daylight
25 Aug - 19:26:14 10° NNW 19:31:45 71° NE 19:37:35 10° SE visible
25 Aug - 21:09:17 10° WNW 21:13:25 21° WSW 21:17:40 10° SSW visible
26 Aug - 09:59:56 10° SSE 10:03:35 25° ESE 10:07:28 10° NE daylight
26 Aug - 11:41:02 10° WSW 11:45:21 43° NW 11:50:04 10° NNE daylight
26 Aug - 13:27:20 10° NW 13:28:52 11° NNW 13:30:27 10° N daylight
26 Aug - 16:56:17 10° N 16:58:25 12° NNE 17:00:37 10° NE daylight
26 Aug - 18:36:45 10° NNW 18:41:57 41° NE 18:47:25 10° ESE visible
26 Aug - 20:18:54 10° NW 20:24:03 39° WSW 20:29:25 10° S visible
27 Aug - 09:12:41 10° SE 09:14:24 12° ESE 09:16:12 10° E daylight
27 Aug - 10:51:06 10° SW 10:55:36 82° WNW 11:00:30 10° NNE daylight
27 Aug - 12:35:29 10° WNW 12:38:33 17° NW 12:41:46 10° N daylight
27 Aug - 17:47:24 10° NNW 17:51:59 26° NE 17:56:45 10° E daylight
27 Aug - 19:29:00 10° NW 19:34:33 70° WSW 19:40:22 10° SSE visible
27 Aug - 21:14:02 10° W 21:15:47 11° WSW 21:17:33 10° WSW visible
28 Aug - 10:01:45 10° S 10:06:03 49° ESE 10:10:44 10° NE daylight
28 Aug - 11:44:29 10° W 11:48:23 26° NW 11:52:36 10° NNE daylight
28 Aug - 16:58:15 10° N 17:01:49 17° NE 17:05:31 10° ENE daylight
28 Aug - 18:39:20 10° NNW 18:44:53 68° NE 18:50:42 10° SE visible
28 Aug - 20:22:18 10° WNW 20:26:34 22° WSW 20:30:58 10° SSW visible
29 Aug - 09:13:08 10° SSE 09:16:43 24° ESE 09:20:31 10° NE daylight
29 Aug - 10:54:04 10° SW 10:58:26 45° NW 11:03:13 10° NNE daylight
29 Aug - 12:40:07 10° NW 12:41:55 12° NNW 12:43:46 10° N daylight
29 Aug - 16:09:27 10° N 16:11:29 12° NNE 16:13:34 10° NE daylight
29 Aug - 17:49:52 10° NNW 17:55:04 40° NE 18:00:30 10° ESE daylight
29 Aug - 19:31:58 10° NW 19:37:12 41° WSW 19:42:39 10° S visible
30 Aug - 08:26:10 10° ESE 08:27:34 11° ESE 08:29:00 10° E daylight
30 Aug - 10:04:11 10° SSW 10:08:42 87° WNW 10:13:39 10° NNE daylight
30 Aug - 11:48:24 10° WNW 11:51:36 18° NW 11:54:58 10° N daylight
30 Aug - 17:00:33 10° NNW 17:05:04 25° NE 17:09:47 10° E daylight
30 Aug - 18:42:05 10° NW 18:47:41 74° WSW 18:53:32 10° SSE visible
30 Aug - 20:26:45 10° W 20:28:57 12° WSW 20:31:11 10° SW visible
